Regional Weather Roundup
Issued by NWS Sioux Falls, SD

Home | Current Version | Previous Version | Text Only | Print | Product List | Glossary On
Versions: 1 2 3 4 5 6 7 8 9 10 11 12 13 14 15 16 17 18 19 20 21 22 23 24 25 26 27 28 29 30 31 32 33 34 35 36 37 38 39 40 41 42 43 44 45 46 47 48 49 50
000
ASUS43 KFSD 070102
RWRFSD

WEATHER ROUNDUP FOR SE SOUTH DAKOTA/SW MINNESOTA/NW IOWA
NATIONAL WEATHER SERVICE SIOUX FALLS SD
800 PM CDT WED MAY 06 2015

NOTE: "FAIR" INDICATES FEW OR NO CLOUDS BELOW 12,000 FEET WITH NO
SIGNIFICANT WEATHER AND OR OBSTRUCTIONS TO VISIBILITY.


SDZ038>040-050-052>070-070200-
SOUTHEAST SOUTH DAKOTA

CITY           SKY/WX    TMP DP  RH WIND       PRES   REMARKS
BROOKINGS      MOCLDY    64  61  88 S17       29.72S
CHAMBERLAIN    NOT AVBL
HURON          PTCLDY    67  60  78 S15G25    29.62S
MADISON        MOCLDY    64  64 100 S17G26    29.70S
MITCHELL       LGT RAIN  66  63  90 SE12      29.65R
SIOUX FALLS    CLOUDY    68  60  75 SE18G29   29.70F
WINNER         TSTM      65  59  81 SE9       29.60S
YANKTON        CLOUDY    66  61  82 SE21G33   29.65F
$$

MNZ071-072-080-081-089-090-097-098-070200-
SOUTHWEST MINNESOTA

CITY           SKY/WX    TMP DP  RH WIND       PRES   REMARKS
FAIRMONT       MOCLDY    72  39  30 S20G28    29.81S
JACKSON        LGT RAIN  68  61  77 SE9G16    29.81F
LUVERNE        CLOUDY    68  61  77 S12G18    29.75S
MARSHALL       PTCLDY    70  55  60 S20G28    29.74S
MONTEVIDEO     PTCLDY    70  59  68 SW15G24   29.75R
PIPESTONE      CLOUDY    66  61  82 S18G28    29.74S
REDWOOD FALLS  CLOUDY    71  58  63 S18       29.77S
TRACY          PTCLDY    69  60  73 S16G26    29.76F
WORTHINGTON    CLOUDY    66  59  77 S13G20    29.78F
$$

IAZ001>003-012>014-020>022-031-032-NEZ013-014-SDZ071-070200-
NORTHWEST IOWA

CITY           SKY/WX    TMP DP  RH WIND       PRES   REMARKS
DENISON        MOCLDY    70  63  78 S21G30    29.77S
ESTHERVILLE    MOCLDY    68  59  73 S18G28    29.81S
SIOUX CITY     MOCLDY    69  60  73 SE20G28   29.72F
SPENCER        CLOUDY    69  59  70 SE17      29.79F
$$

ABBREVIATIONS USED IN REMARKS
   TC - TEMPERATURE IN CELSIUS
  WCI - WIND CHILL INDEX
   HX - HEAT INDEX
  VSB - VISIBILITY



USA.gov is the U.S. government's official web portal to all federal, state and local government web resources and services.